Home   Weather   Wright   Past weeks

Flag for USA Past Weather in Wright, Florida, USA — Yesterday and Last 2 Weeks

Now
36 °F

Clear.


Feels Like: 29 °F
Forecast: 32 / 56 °F
Wind: 9 mph from North

Location: Hurlburt Field

Current Time: Dec 9, 2016 at 11:12:36 pm

Latest Report: Dec 9, 2016 at 9:58 pm


Visibility: 10 mi

Pressure: 30.45 "Hg

Humidity: 56%

Dew Point: 22 °F

Location of WrightLocation

Past Weather in Wright — Graph

°F

Wright Temperature Yesterday

Maximum temperature yesterday: 60 °F (at 11:58 am)
Minimum temperature yesterday: 45 °F (at 11:58 pm)
Average temperature yesterday: 51 °F

High & Low Weather Summary for the Past Weeks

 TemperatureHumidityPressure
High80 °F (Nov 29, 11:58 am)100% (Nov 25, 6:03 am)30.49 "Hg (Nov 25, 6:03 am)
Low35 °F (Nov 27, 4:58 am)20% (Dec 2, 1:00 pm)29.66 "Hg (Dec 6, 1:03 am)
Average60 °F69%30.06 "Hg
* Reported Nov 24 9:58 pm — Dec 9 9:58 pm, Wright, Weather by CustomWeather, © 2016

Note: Actual official high and low records may vary slightly from our data, if they occured in-between our weather recording intervals... More about our weather records

Advertising

Wright Weather History for the Previous 24 Hours

Scroll right to see more
 ConditionsComfort  
Time TempWeatherWind HumidityBarometerVisibility
9:58 pm
Fri, Dec 9
36 °FClear.9 mph56%30.45 "Hg10 mi
8:58 pm36 °FClear.9 mph55%30.47 "Hg10 mi
7:58 pm38 °FClear.8 mph55%30.46 "Hg10 mi
6:58 pm39 °FClear.8 mph51%30.45 "Hg10 mi
5:58 pm40 °FClear.8 mph48%30.45 "Hg10 mi
4:58 pm50 °FClear.10 mph25%30.42 "Hg10 mi
3:58 pm50 °FClear.12 mph24%30.42 "Hg10 mi
2:58 pm53 °FSunny.12 mph21%29.91 "Hg10 mi
1:58 pm53 °FSunny.14 mph21%30.40 "Hg10 mi
12:58 pm52 °FSunny.14 mph21%30.40 "Hg10 mi
11:58 am51 °FSunny.17 mph22%30.42 "Hg10 mi
10:58 am48 °FSunny.15 mph27%30.47 "Hg10 mi
9:58 am46 °FSunny.15 mph35%30.48 "Hg10 mi
8:58 am42 °FSunny.15 mph41%30.49 "Hg10 mi
7:58 am39 °FSunny.18 mph49%30.47 "Hg10 mi
6:58 am37 °FPassing clouds.16 mph56%30.47 "Hg10 mi
5:58 am37 °FPassing clouds.12 mph57%30.45 "Hg10 mi
4:58 am38 °FPassing clouds.13 mph56%30.42 "Hg10 mi
3:58 am39 °FPassing clouds.12 mph56%30.42 "Hg10 mi
2:58 am41 °FPassing clouds.17 mph49%30.40 "HgN/A
1:58 am42 °FPassing clouds.16 mph49%30.39 "Hg10 mi
12:58 am42 °FPassing clouds.16 mph48%30.37 "Hg10 mi
11:58 pm
Thu, Dec 8
45 °FOvercast.15 mph41%30.37 "Hg10 mi
Weather by CustomWeather, © 2016

See weather overviewHow to use our weather pages